Location: Haliburton Scout Reserve
(45.0900°N, 78.3200°W)
Time: 17:26:27
(UTC-05:00)

Courier 1B - Pass Details

Date: 08 December 2023
Orbit: 962 x 1209 km, 28.3° (Epoch: 23 February)

Event Time Altitude Azimuth Distance (km) Brightness Sun altitude
Rises 12:27:04 0° 247° (WSW) 3,701 10.9 22.0°
Reaches altitude 10° 12:32:27 10° 212° (SSW) 2,706 11.2 21.9°
Maximum altitude 12:33:47 11° 200° (SSW) 2,650 11.7 21.9°
Drops below altitude 10° 12:35:07 10° 188° (S) 2,691 12.1 21.8°
Sets 12:40:25 0° 151° (SSE) 3,625 11.3 21.7°
